sat.trackr.live / text

‹ back to catalog

STARLINK-32088

NORAD 59693 · 2024-086M

PAYLOAD ACTIVE UNKNOWN

§ Identity

Operator
Country
US
Launch date
2024-05-08
Launch site
AFETR
Launch vehicle
Mass (kg)
RCS (m²)

Purposes: comms

External: N2YO · Heavens-Above · Gunter

§ Orbital elements

Epoch: 2026-05-24T22:59:05.777664Z

Period
94.27 min
Inclination
43.0014°
Eccentricity
0.0001083
Mean motion
15.27580000 rev/d
Perigee alt
482.3 km
Apogee alt
483.8 km
Semi-major
6,861.2 km
B*
6.8083e-5
RAAN
341.6250°
Arg perigee
271.6611°
Mean anomaly
88.4117°
Rev number
11,586

§ Raw data

STARLINK-320881 59693U 24086M   26144.95770576  .00001612  00000+0  68083-4 0  99932 59693  43.0014 341.6250 0001083 271.6611  88.4117 15.27580000115861

JSON: /api/v1/satellites/59693 · /tle

For live sub-satellite position, see the globe view (requires WebGL).

§ Visibility from observer

Set your observer location to see the next 7 days of passes ≥ 10°. The values pass through the URL so the page stays shareable.

No JS? Fill the form by hand. The geolocation button needs JavaScript.